Location: Maiden_LMO
(35.5760°N, 81.2120°W)
Time: 01:03:52
(UTC-04:00)

ADEOS II - Visible Passes

Search period start: 21 April 2015 00:00
Search period end: 01 May 2015 00:00
Orbit: 800 x 803 km, 98.3° (Epoch: 20 April)

Date Brightness Start Highest point End Pass type
(mag) Time Alt. Az. Time Alt. Az. Time Alt. Az.
21 Apr 4.5 06:02:15 10° NE 06:06:27 25° E 06:10:45 10° SSE visible
22 Apr 5.0 05:37:37 10° ENE 05:39:57 13° E 05:42:36 10° ESE visible
25 Apr 4.7 05:57:27 10° NE 06:01:26 22° E 06:05:34 10° SE visible
26 Apr 5.1 05:33:10 10° ENE 05:34:55 12° E 05:37:01 10° ESE visible
29 Apr 4.8 05:52:40 10° NE 05:56:24 20° E 06:00:20 10° SE visible
30 Apr 5.3 05:29:01 10° ENE 05:29:51 10° E 05:31:06 10° ESE visible
